Volver al catálogo

STARLINK-32517

ActivoComunicacionesVLEO
NORAD 61980·PAYLOAD·🇺🇸 United States

Lanzado Nov 14, 2024 desde Cape Canaveral Space Force Station

Loading…

Próximos Pases (próximas 24 horas)

TLE

ActualizadoSource: CelesTrak SupGP

Época: Sep 14, 2026, 22:20 UTC

1 61980C 24210X   26257.93104167 -.00018059  00000+0 -65405-3 0  2570
2 61980  42.9999 191.4642 0001212 255.8355 245.6445 15.27589966    13

Sigue STARLINK-32517 en tiempo real con AllMySat

Download on the App Store